RH
100 94 92 88 100 100 100 100 100 100 100 100 92 89 100 90 90 76 59 52 57 63 58 61 62 72 64 55 47 44 36 41 32 28 27 28 23 26 38 29 21 20 22 27
100 100 91 80 85 100 100 100 100 100 100 100 100 100 100 99 82 81 95 99 88 71 65 54 59 61 66 70 82 95 94 72 63 34 30 25 30 35 27 26 26 25 23 22
92 100 94 95 89 81 96 100 100 100 100 100 98 96 98 100 100 98 91 82 72 69 65 64 54 52 56 72 80 86 91 84 76 55 36 34 34 40 30 28 28 28 28 23
89 100 100 100 100 91 84 90 100 100 100 100 100 100 100 86 100 98 88 76 76 74 72 69 69 67 59 56 60 71 81 79 61 74 50 41 35 41 41 47 54 59 44 30
82 88 91 96 100 100 90 92 89 84 84 75 77 72 66 82 75 74 68 74 79 71 71 74 73 80 79 61 57 59 65 73 66 65 58 56 44 53 63 58 46 37 35 34
67 64 70 70 76 90 96 91 87 87 82 79 78 70 62 82 77 71 68 68 68 73 80 83 83 70 58 55 68 77 62 72 70 62 62 62 65 56 60 45 35 35 36 37
43 46 41 45 56 76 95 99 100 98 96 94 96 95 92 92 73 84 89 84 77 77 76 71 67 67 56 52 47 50 64 56 58 61 59 59 62 59 55 58 48 39 40 38
73 54 44 47 52 71 100 97 98 100 97 100 90 94 100 100 100 78 68 77 89 76 59 48 40 38 44 43 48 52 46 46 58 68 70 61 71 65 74 71 58 54 43 43
86 79 64 67 74 84 91 90 97 94 98 96 100 99 99 99 95 94 77 69 64 45 34 38 40 41 41 45 46 44 44 52 58 62 58 64 77 72 68 82 73 68 52 50
99 98 95 93 89 89 98 99 100 96 88 93 91 100 97 92 76 64 47 42 40 36 34 34 34 32 34 34 39 40 36 38 39 41 46 56 60 62 59 91 90 88 63 57
91 100 100 96 96 100 100 100 100 99 96 90 72 62 58 60 53 60 64 47 35 28 28 25 20 20 21 19 20 27 40 37 42 42 50 58 66 66 75 95 100 98 75 68
82 78 77 84 85 82 75 66 63 60 65 71 60 74 81 77 57 40 36 28 20 17 13 11 12 13 13 18 21 21 27 36 38 43 60 64 69 69 81 96 100 98 83 76
60 54 51 47 62 69 75 70 69 81 93 94 80 64 53 47 42 38 35 27 15 9 8 8 7 6 8 12 15 21 20 49 37 45 48 58 66 71 79 100 100 97 90 84
64 57 59 73 94 97 71 84 88 87 85 79 76 67 64 78 52 42 21 9 7 5 5 5 5 4 5 5 9 17 25 49 36 41 48 56 68 76 100 100 100 98 91 89
63 68 83 100 100 84 85 83 85 70 72 73 98 62 92 84 58 50 16 8 6 5 3 3 3 5 6 9 14 18 26 34 30 42 51 64 78 98 100 100 100 98 98 100
82 87 77 91 90 82 91 82 65 72 71 90 80 94 82 81 82 66 32 16 9 5 4 4 4 6 6 7 13 27 30 30 40 52 64 90 100 100 100 100 98 100 99 100
80 80 84 79 89 96 68 74 64 78 96 100 86 86 78 100 100 90 68 48 29 19 15 9 7 12 16 30 27 29 40 55 62 73 95 100 100 100 100 100 98 96 100 100
83 79 85 96 99 66 64 63 62 78 98 98 100 93 85 100 100 100 100 87 62 53 49 40 35 38 50 56 62 68 68 75 95 100 100 100 100 100 100 100 100 100 100 100
81 93 100 95 78 70 100 91 58 65 85 100 88 91 75 98 90 100 100 100 100 99 96 88 86 84 88 86 80 97 100 100 100 100 100 100 100 100 100 100 100 100 91 95
93 99 100 84 58 75 100 80 61 64 90 89 96 94 79 100 83 92 100 100 100 100 100 100 100 100 100 100 100 100 100 100 100 100 100 100 100 100 100 97 90 94 96 92
100 100 96 80 60 97 76 72 68 77 95 98 89 100 100 98 95 97 95 78 87 98 95 100 100 100 100 95 98 100 100 100 100 100 100 100 100 70 71 91 92 94 87 81
100 96 92 83 68 77 62 73 97 100 81 100 96 97 87 95 100 100 100 81 86 100 100 100 100 100 100 100 100 100 100 98 100 100 100 100 100 100 99 99 91 88 98 100
98 98 96 80 69 78 73 70 93 100 73 100 97 89 84 96 90 92 99 100 100 90 69 76 93 100 100 100 100 100 100 100 100 100 100 100 100 96 93 100 100 100 100 100
100 100 97 77 65 66 74 79 81 95 92 100 100 88 77 94 100 100 95 93 94 100 100 92 91 97 90 86 90 95 97 95 93 90 88 94 100 100 100 100 100 100 100 100
100 93 100 85 78 70 60 57 66 79 97 100 100 99 77 84 97 100 90 96 98 100 100 100 100 88 90 94 93 88 88 94 99 99 100 100 100 100 100 100 100 100 100 99
88 100 100 93 83 68 56 58 59 71 82 100 100 89 96 85 86 100 99 94 90 98 100 100 100 96 100 100 100 100 100 100 100 100 100 100 100 100 100 100 100 98 92 87
Wind_Speed
83 87 91 92 89 86 79 81 83 84 82 82 77 73 71 70 66 73 70 68 68 67 68 66 66 66 64 63 62 60 59 55 56 54 53 55 56 55 60 62 60 59 59 62
82 83 92 92 89 88 85 83 84 84 84 80 78 73 71 73 71 72 73 74 75 75 70 69 69 67 68 66 67 66 64 59 59 56 54 52 46 52 59 59 60 61 61 60
88 82 85 88 91 89 90 89 89 85 82 82 79 74 75 73 75 78 80 82 83 79 75 72 71 70 70 72 75 74 70 67 58 63 59 51 48 52 52 55 58 59 59 61
78 80 86 83 90 92 89 89 89 90 87 86 85 81 80 82 83 83 85 84 82 80 78 79 78 77 75 75 78 77 75 73 69 65 63 59 56 53 55 49 54 52 56 57
79 79 82 89 88 88 90 89 89 90 91 89 88 87 76 83 82 81 79 79 83 83 83 84 83 81 82 81 79 81 80 77 76 69 68 63 61 58 54 54 54 54 54 55
67 74 79 85 86 86 87 89 88 88 88 86 85 84 71 78 78 81 85 84 86 88 89 89 89 89 90 89 85 83 81 79 79 74 73 66 68 64 62 63 59 54 54 53
58 63 66 71 76 81 83 83 84 86 84 80 82 81 77 78 80 85 90 92 91 94 96 97 97 97 95 91 89 89 86 84 83 81 77 76 69 66 65 65 60 56 54 51
48 50 53 60 64 70 76 78 81 81 82 82 82 77 77 81 84 92 93 96 99 101 102 103 100 94 94 92 88 88 85 84 83 81 80 80 66 67 65 66 61 58 55 53
40 45 47 51 57 63 69 70 73 72 74 74 74 77 79 85 88 95 98 99 102 103 97 94 91 89 89 89 90 89 85 81 84 81 84 76 64 69 67 63 62 62 57 53
37 39 40 44 48 51 56 62 65 67 68 71 72 76 82 84 89 87 88 88 90 92 92 93 92 93 92 90 89 91 88 83 85 85 84 77 74 74 70 63 62 62 58 53
35 39 44 46 46 48 53 57 59 61 64 65 62 59 63 70 72 76 83 87 90 90 90 94 93 95 94 91 85 82 85 80 77 73 69 70 70 71 65 63 61 62 57 54
35 39 43 43 44 43 41 42 39 35 35 41 43 43 62 70 79 79 83 84 85 83 80 78 80 80 71 74 76 76 74 72 76 71 69 66 63 60 61 62 60 59 55 53
33 35 33 26 23 21 22 22 23 26 33 44 47 50 62 65 69 69 71 73 73 66 57 56 60 57 65 71 71 71 65 55 62 68 72 67 56 51 55 57 57 55 54 54
25 22 17 16 16 19 18 18 24 29 34 24 39 35 40 50 55 60 55 46 41 36 35 42 41 39 46 52 57 60 57 57 59 63 64 63 59 50 51 53 53 54 55 54
21 17 18 16 14 16 17 22 26 16 14 15 31 29 27 45 34 34 36 35 33 30 26 27 23 24 28 34 38 48 59 54 54 55 54 54 52 48 49 49 51 54 55 55
21 19 15 13 15 14 20 15 11 8 13 22 27 27 21 25 19 24 21 17 17 14 11 10 9 11 20 32 41 52 46 43 43 44 47 49 47 45 46 49 51 53 54 56
17 13 13 10 11 13 11 11 10 10 17 22 23 10 21 16 23 29 31 29 25 19 15 6 8 12 12 20 25 31 32 33 36 38 43 44 44 44 46 48 49 51 55 56
14 13 7 10 12 17 8 7 4 11 18 16 16 19 11 13 18 26 32 31 32 33 34 33 32 32 30 28 27 26 27 27 30 33 37 39 38 40 43 45 50 52 54 55
12 8 9 12 17 16 4 7 6 12 17 15 20 12 16 9 16 21 23 29 32 31 33 31 31 31 30 27 26 25 25 25 24 24 26 30 36 39 42 47 50 51 54 55
10 11 11 14 16 13 6 7 7 13 16 16 15 10 11 16 18 18 13 19 28 26 28 28 29 28 26 22 20 19 18 17 19 23 27 31 34 38 43 47 50 52 52 52
13 13 14 18 21 17 12 5 7 10 19 17 15 8 8 8 16 15 11 9 15 19 20 22 22 25 21 10 10 9 13 13 14 22 25 25 31 40 42 47 47 46 46 44
17 15 16 21 23 20 10 7 6 12 12 20 13 9 11 9 9 9 13 9 5 9 10 14 17 19 21 16 19 16 10 15 17 24 29 33 38 45 47 43 40 37 38 42
16 15 17 21 20 19 15 12 11 12 7 16 7 6 1 5 10 6 9 13 10 1 5 6 10 15 21 24 25 23 26 27 28 33 39 39 38 35 31 31 35 39 44 48
16 18 21 25 19 17 17 12 9 10 12 11 6 9 8 4 6 7 4 4 8 6 4 3 9 10 14 21 26 28 26 25 24 23 22 22 24 26 30 36 41 45 50 56
20 21 25 25 23 22 21 15 12 12 9 9 6 8 13 9 5 6 4 4 4 2 2 2 4 5 9 9 12 12 12 12 13 16 20 24 28 32 38 42 47 52 57 63
19 23 29 23 22 18 17 16 11 11 10 8 10 10 9 12 12 11 6 7 8 5 4 6 7 6 6 7 9 12 14 16 19 22 26 30 34 38 42 47 52 58 64 69
Wind_Direction
229 228 230 230 229 232 234 238 240 241 242 245 246 250 253 255 257 264 267 267 266 266 257 257 260 262 263 266 268 269 269 269 270 267 268 269 271 272 267 267 269 270 270 269
225 229 229 230 232 233 235 236 239 241 243 245 248 248 251 257 261 264 265 265 265 269 264 259 259 261 263 264 267 269 271 267 269 267 268 268 275 274 269 269 268 266 269 269
226 227 232 231 233 235 235 237 240 243 246 248 250 251 254 258 259 261 264 266 269 268 263 261 261 260 262 263 265 267 268 269 267 271 267 270 271 276 277 273 268 266 265 268
229 229 230 233 233 235 237 240 242 244 247 249 251 252 257 259 260 263 266 267 266 265 263 261 264 263 262 261 261 263 265 267 267 268 270 272 273 275 278 273 268 265 268 269
229 230 229 229 232 234 236 240 243 245 247 250 253 254 253 260 261 263 263 266 268 264 263 263 264 265 266 264 259 259 261 263 264 267 268 271 273 274 273 270 273 272 274 272
229 232 231 231 231 233 236 240 242 246 249 251 254 257 256 260 262 262 265 267 266 266 266 266 267 268 268 265 260 257 257 258 263 263 266 269 271 275 275 278 279 273 273 275
222 225 229 231 232 233 236 239 243 245 249 253 255 258 262 262 263 265 266 266 266 267 268 268 268 268 267 264 261 258 256 256 259 262 264 266 269 274 275 276 279 278 275 275
218 223 225 227 230 232 235 240 243 247 250 253 258 261 259 260 263 265 266 267 269 268 268 268 267 265 262 260 258 258 255 254 257 260 262 263 267 270 268 274 278 280 277 276
217 224 225 228 230 232 236 241 245 248 252 254 258 260 261 262 265 266 266 268 268 271 269 265 263 262 260 259 260 258 256 253 255 257 258 261 262 263 265 269 273 275 276 277
216 222 227 230 233 236 240 244 247 251 254 256 259 261 264 267 268 268 267 268 267 265 264 267 266 263 260 255 254 256 256 254 253 254 257 259 260 261 263 263 267 271 273 275
219 225 229 232 234 236 240 245 249 252 257 262 265 264 267 265 269 270 269 269 269 269 268 268 266 264 262 261 257 252 254 255 253 253 253 252 251 254 256 258 262 266 270 274
228 230 232 235 238 242 247 248 250 255 260 266 266 269 273 276 274 277 279 278 274 274 274 271 266 265 264 259 253 251 247 249 248 247 246 246 247 249 251 254 257 265 269 273
225 227 230 230 220 225 237 245 252 263 271 273 276 276 273 276 278 280 281 282 283 283 279 272 263 255 244 243 241 239 232 234 236 238 240 241 244 245 247 250 256 264 268 272
210 211 191 191 209 228 236 253 266 271 279 273 276 278 289 290 296 301 302 302 298 289 270 261 259 252 248 243 241 236 218 219 225 229 235 238 241 243 245 249 256 263 267 272
190 176 178 179 208 233 253 267 275 263 263 295 320 309 296 297 318 324 309 304 303 299 283 271 260 252 240 229 221 213 210 214 217 221 229 231 234 238 242 249 257 263 269 275
165 170 179 202 226 256 274 271 215 265 347 343 326 328 309 321 20 7 4 343 322 311 296 266 238 230 228 213 203 198 206 202 206 215 221 222 227 235 243 251 259 265 272 275
171 186 201 225 265 268 216 205 215 345 358 343 330 353 351 14 21 33 31 40 54 61 62 74 132 124 151 184 192 183 177 187 199 209 211 219 230 237 246 255 262 269 273 275
193 199 218 263 249 210 192 198 253 337 351 344 325 324 19 44 40 40 37 39 51 60 69 79 91 102 112 124 136 153 170 180 189 200 210 220 232 245 253 259 266 271 275 277
201 214 250 254 226 185 167 245 286 325 340 346 341 347 6 14 40 49 56 60 63 70 78 85 95 103 109 119 131 138 150 164 183 202 219 233 243 250 256 263 269 275 278 280
212 237 259 240 205 177 223 244 288 353 353 350 342 344 356 31 36 38 42 77 70 74 82 86 92 98 103 110 127 144 159 176 203 221 234 243 250 255 262 268 273 278 282 285
233 248 254 227 198 193 215 253 319 6 351 348 336 322 320 355 5 18 34 56 76 88 95 96 106 101 85 106 142 179 191 201 229 231 246 261 261 265 271 277 281 282 283 283
240 254 247 225 207 212 208 230 295 333 343 345 327 325 293 285 313 352 41 59 75 91 93 105 108 118 130 139 146 146 166 237 221 232 240 252 256 264 276 281 280 278 281 286
245 249 241 220 218 223 225 237 269 301 314 337 316 327 228 357 78 59 58 58 64 126 164 152 158 160 160 174 188 215 225 240 240 240 249 261 266 265 266 274 281 285 289 292
252 251 230 218 224 225 232 230 256 277 305 327 297 288 257 280 328 355 360 106 103 97 29 309 188 186 208 214 219 230 240 244 245 243 245 251 262 274 282 285 290 292 292 291
250 248 229 229 225 236 245 252 252 266 290 302 265 276 256 246 252 288 297 167 137 84 10 297 264 163 160 179 196 205 213 227 244 260 269 276 285 290 291 291 292 292 290 291
257 230 225 234 238 254 242 264 270 275 296 279 255 263 264 239 234 228 244 188 179 187 222 226 228 228 221 231 242 249 258 266 274 281 285 288 289 290 290 289 288 290 294 296